Location: Les Gen�tes
(46.3104°N, 1.5969°E)
Time: 18:54:56
(UTC+00:00)

ERS-1 Rocket - Pass Details

Date: 01 June 2020
Orbit: 753 x 758 km, 98.5° (Epoch: 07 July)

Event Time Altitude Azimuth Distance (km) Brightness Sun altitude
Exits shadow 21:59:38 19° 197° (SSW) 1,762 4.5 -16.9°
Maximum altitude 22:03:00 44° 261° (W) 1,041 3.8 -17.2°
Drops below altitude 10° 22:07:49 10° 334° (NNW) 2,296 6.8 -17.6°
Sets 22:10:15 0° 341° (NNW) 3,227 8.0 -17.7°
